Year,Month,Day,Hour,Minute,Value (Times are PST for temperature in C)
2010,02,22,14,12,12.40
2010,02,22,14,13,12.40
2010,02,22,14,14,12.50
2010,02,22,14,15,12.50
2010,02,22,14,16,12.40
2010,02,22,14,17,12.40
2010,02,22,14,18,12.50
2010,02,22,14,19,12.60
2010,02,22,14,20,12.70
2010,02,22,14,21,12.80
2010,02,22,14,22,12.90
2010,02,22,14,23,13.00
2010,02,22,14,24,13.00
2010,02,22,14,25,13.10
2010,02,22,14,26,13.20
2010,02,22,14,27,13.20
2010,02,22,14,28,13.20
2010,02,22,14,29,13.30
2010,02,22,14,30,13.30
2010,02,22,14,31,13.30
2010,02,22,14,32,13.30
2010,02,22,14,33,13.30
2010,02,22,14,34,13.30
2010,02,22,14,35,13.30
2010,02,22,14,36,13.20
2010,02,22,14,37,13.20
2010,02,22,14,38,13.10
2010,02,22,14,39,13.10
2010,02,22,14,40,13.10
2010,02,22,14,41,13.10
2010,02,22,14,42,13.00
2010,02,22,14,43,13.00
2010,02,22,14,44,13.00
2010,02,22,14,45,13.00
2010,02,22,14,46,13.00
2010,02,22,14,47,12.90
2010,02,22,14,48,12.90
2010,02,22,14,49,12.90
2010,02,22,14,50,12.80
2010,02,22,14,51,12.70
2010,02,22,14,52,12.60
2010,02,22,14,53,12.50
2010,02,22,14,54,12.50
2010,02,22,14,55,12.40
2010,02,22,14,56,12.30
2010,02,22,14,57,12.20
2010,02,22,14,58,12.20
2010,02,22,14,59,12.10
2010,02,22,15,00,12.00
2010,02,22,15,01,11.90
2010,02,22,15,02,11.80
2010,02,22,15,03,11.70
2010,02,22,15,05,11.70
2010,02,22,15,06,11.70
2010,02,22,15,07,11.70
2010,02,22,15,08,11.70
2010,02,22,15,09,11.60
2010,02,22,15,10,11.60
2010,02,22,15,11,11.60
2010,02,22,15,12,11.60
2010,02,22,15,13,11.60
2010,02,22,15,14,11.60
2010,02,22,15,15,11.50
2010,02,22,15,16,11.50
2010,02,22,15,17,11.50
2010,02,22,15,18,11.50
2010,02,22,15,40,11.40
2010,02,22,15,41,11.50
2010,02,22,15,42,11.50
2010,02,22,15,43,11.60
2010,02,22,15,44,11.60
2010,02,22,15,45,11.70
2010,02,22,15,46,11.70
2010,02,22,15,47,11.70
2010,02,22,15,48,11.80
2010,02,22,15,49,11.80
2010,02,22,15,50,11.80
2010,02,22,15,51,11.80
2010,02,22,15,52,11.80
2010,02,22,15,53,11.70
2010,02,22,15,54,11.70
2010,02,22,15,55,11.70
2010,02,22,15,56,11.70
2010,02,22,15,57,11.70
2010,02,22,15,58,11.60
2010,02,22,15,59,11.60
2010,02,22,16,00,11.60
2010,02,22,16,01,11.60
2010,02,22,16,02,11.60
2010,02,22,16,03,11.60
2010,02,22,16,04,11.60
2010,02,22,16,05,11.60
2010,02,22,16,06,11.60
2010,02,22,16,07,11.50
2010,02,22,16,08,11.50
2010,02,22,16,09,11.50
2010,02,22,16,10,11.50
2010,02,22,16,11,11.50
2010,02,22,16,12,11.50
2010,02,22,16,13,11.60
2010,02,22,16,14,11.60
2010,02,22,16,15,11.60
2010,02,22,16,16,11.60
2010,02,22,16,17,11.60
2010,02,22,16,18,11.60
2010,02,22,16,19,11.60
2010,02,22,16,20,11.60
2010,02,22,16,21,11.60
2010,02,22,16,22,11.60
2010,02,22,16,23,11.60
2010,02,22,16,24,11.60
2010,02,22,16,25,11.50
2010,02,22,16,26,11.50
2010,02,22,16,27,11.50
2010,02,22,16,28,11.50
2010,02,22,16,29,11.40
2010,02,22,16,30,11.40
2010,02,22,16,31,11.40
2010,02,22,16,32,11.40
2010,02,22,16,33,11.30
2010,02,22,16,34,11.30
2010,02,22,16,35,11.30
2010,02,22,16,36,11.20
2010,02,22,16,37,11.20
2010,02,22,16,38,11.20
2010,02,22,16,39,11.20
2010,02,22,16,40,11.30
2010,02,22,16,41,11.30
2010,02,22,16,42,11.30
2010,02,22,16,43,11.30
2010,02,22,16,44,11.30
2010,02,22,16,45,11.40
2010,02,22,16,46,11.40
2010,02,22,16,47,11.50
2010,02,22,16,48,11.50
2010,02,22,16,49,11.40
2010,02,22,16,50,11.40
2010,02,22,16,51,11.40
2010,02,22,16,52,11.40
2010,02,22,16,53,11.40
2010,02,22,16,54,11.40
2010,02,22,16,55,11.30
2010,02,22,16,56,11.30
2010,02,22,16,57,11.30
2010,02,22,16,58,11.20
2010,02,22,16,59,11.20
2010,02,22,17,00,11.20
2010,02,22,17,01,11.10
2010,02,22,17,02,11.00
2010,02,22,17,03,11.00
2010,02,22,17,04,10.90
2010,02,22,17,05,10.90
2010,02,22,17,06,10.80
2010,02,22,17,07,10.80
2010,02,22,17,08,10.80
2010,02,22,17,09,10.70
2010,02,22,17,10,10.70
2010,02,22,17,11,10.60
2010,02,22,17,12,10.50
2010,02,22,17,13,10.50
2010,02,22,17,14,10.40
2010,02,22,17,15,10.30
2010,02,22,17,16,10.30
2010,02,22,17,17,10.20
2010,02,22,17,18,10.20
2010,02,22,17,19,10.10
2010,02,22,17,20,10.00
2010,02,22,17,21,9.90
2010,02,22,17,22,9.90
2010,02,22,17,23,9.80
2010,02,22,17,24,9.70
2010,02,22,17,25,9.60
2010,02,22,17,26,9.50
2010,02,22,17,27,9.40
2010,02,22,17,28,9.30
2010,02,22,17,29,9.20
2010,02,22,17,30,9.20
2010,02,22,17,31,9.10
2010,02,22,17,32,9.00
2010,02,22,17,33,9.00
2010,02,22,17,34,8.90
2010,02,22,17,35,8.80
2010,02,22,17,36,8.70
2010,02,22,17,37,8.70
2010,02,22,17,38,8.60
2010,02,22,17,39,8.60
2010,02,22,17,40,8.50
2010,02,22,17,41,8.50
2010,02,22,17,42,8.40
2010,02,22,17,43,8.30
2010,02,22,17,44,8.30
2010,02,22,17,45,8.30
2010,02,22,17,46,8.20
2010,02,22,17,47,8.20
2010,02,22,17,48,8.10
2010,02,22,17,49,8.00
2010,02,22,17,50,8.00
2010,02,22,17,51,7.90
2010,02,22,17,52,7.90
2010,02,22,17,53,7.80
2010,02,22,17,54,7.70
2010,02,22,17,55,7.70
2010,02,22,17,56,7.60
2010,02,22,17,57,7.60
2010,02,22,17,58,7.60
2010,02,22,17,59,7.50
2010,02,22,18,00,7.50
2010,02,22,18,01,7.50
2010,02,22,18,02,7.40
2010,02,22,18,03,7.40
2010,02,22,18,04,7.30
2010,02,22,18,05,7.30
2010,02,22,18,06,7.30
2010,02,22,18,07,7.20
2010,02,22,18,08,7.10
2010,02,22,18,09,7.10
2010,02,22,18,10,7.00
2010,02,22,18,11,7.00
2010,02,22,18,12,7.00
2010,02,22,18,13,7.00
2010,02,22,18,14,6.90
2010,02,22,18,15,6.90
2010,02,22,18,16,6.90
2010,02,22,18,17,7.00
2010,02,22,18,18,7.00
2010,02,22,18,19,7.00
2010,02,22,18,20,7.10
2010,02,22,18,21,7.10
2010,02,22,18,22,7.10
2010,02,22,18,23,7.10
2010,02,22,18,24,7.10
2010,02,22,18,25,7.10
2010,02,22,18,26,7.10
2010,02,22,18,27,7.10
2010,02,22,18,28,7.10
2010,02,22,18,29,7.10
2010,02,22,18,30,7.20
2010,02,22,18,31,7.20
2010,02,22,18,32,7.20
2010,02,22,18,33,7.20
2010,02,22,18,34,7.20
2010,02,22,18,35,7.20
2010,02,22,18,36,7.10
2010,02,22,18,37,7.10
2010,02,22,18,38,7.10
2010,02,22,18,39,7.10
2010,02,22,18,40,7.00
2010,02,22,18,41,7.00
2010,02,22,18,42,6.90
2010,02,22,18,43,6.90
2010,02,22,18,44,6.90
2010,02,22,18,45,6.80
2010,02,22,18,46,6.80
2010,02,22,18,47,6.80
2010,02,22,18,48,6.80
2010,02,22,18,49,6.80
2010,02,22,18,50,6.80
2010,02,22,18,51,6.80
2010,02,22,18,52,6.80
2010,02,22,18,53,6.80
2010,02,22,18,54,6.80
2010,02,22,18,55,6.80
2010,02,22,18,56,6.80
2010,02,22,18,57,6.90
2010,02,22,18,58,6.90
2010,02,22,18,59,6.90
2010,02,22,19,00,6.90
2010,02,22,19,01,6.90
2010,02,22,19,02,6.90
2010,02,22,19,03,6.80
2010,02,22,19,04,6.80
2010,02,22,19,05,6.80
2010,02,22,19,06,6.80
2010,02,22,19,07,6.80
2010,02,22,19,08,6.80
2010,02,22,19,09,6.70
2010,02,22,19,10,6.70
2010,02,22,19,11,6.70
2010,02,22,19,12,6.70
2010,02,22,19,13,6.70
2010,02,22,19,14,6.70
2010,02,22,19,15,6.60
2010,02,22,19,16,6.60
2010,02,22,19,17,6.60
2010,02,22,19,18,6.60
2010,02,22,19,19,6.60
2010,02,22,19,20,6.60
2010,02,22,19,21,6.50
2010,02,22,19,22,6.50
2010,02,22,19,23,6.50
2010,02,22,19,24,6.50
2010,02,22,19,25,6.50
2010,02,22,19,26,6.60
2010,02,22,19,27,6.60
2010,02,22,19,28,6.70
2010,02,22,19,29,6.70
2010,02,22,19,30,6.70
2010,02,22,19,31,6.70
2010,02,22,19,32,6.70
2010,02,22,19,33,6.70
2010,02,22,19,34,6.70
2010,02,22,19,35,6.70
2010,02,22,19,36,6.70
2010,02,22,19,37,6.60
2010,02,22,19,38,6.60
2010,02,22,19,39,6.60
2010,02,22,19,40,6.60
2010,02,22,19,41,6.50
2010,02,22,19,42,6.50
2010,02,22,19,43,6.50
2010,02,22,19,44,6.50
2010,02,22,19,45,6.50
2010,02,22,19,46,6.40
2010,02,22,19,47,6.40
2010,02,22,19,48,6.40
2010,02,22,19,49,6.40
2010,02,22,19,50,6.40
2010,02,22,19,51,6.40
2010,02,22,19,52,6.40
2010,02,22,19,53,6.40
2010,02,22,19,54,6.30
2010,02,22,19,55,6.30
2010,02,22,19,56,6.30
2010,02,22,19,57,6.30
2010,02,22,19,58,6.30
2010,02,22,19,59,6.20
2010,02,22,20,00,6.20
2010,02,22,20,01,6.10
2010,02,22,20,02,6.10
2010,02,22,20,03,6.00
2010,02,22,20,04,6.00
2010,02,22,20,05,5.90
2010,02,22,20,06,5.90
2010,02,22,20,07,5.90
2010,02,22,20,08,5.90
2010,02,22,20,09,5.80
2010,02,22,20,10,5.80
2010,02,22,20,11,5.80
2010,02,22,20,12,5.80
2010,02,22,20,13,5.80
2010,02,22,20,14,5.80
2010,02,22,20,15,5.80
2010,02,22,20,16,5.70
2010,02,22,20,17,5.70
2010,02,22,20,18,5.70
2010,02,22,20,19,5.70
2010,02,22,20,20,5.70
2010,02,22,20,21,5.80
2010,02,22,20,22,5.80
2010,02,22,20,23,5.80
2010,02,22,20,24,5.80
2010,02,22,20,25,5.80
2010,02,22,20,26,5.80
2010,02,22,20,27,5.80
2010,02,22,20,28,5.80
2010,02,22,20,29,5.80
2010,02,22,20,30,5.70
2010,02,22,20,31,5.70
2010,02,22,20,32,5.70
2010,02,22,20,33,5.70
2010,02,22,20,34,5.70
2010,02,22,20,35,5.70
2010,02,22,20,36,5.70
2010,02,22,20,37,5.70
2010,02,22,20,38,5.80
2010,02,22,20,39,5.80
2010,02,22,20,40,5.80
2010,02,22,20,41,5.80
2010,02,22,20,42,5.80
2010,02,22,20,43,5.80
2010,02,22,20,44,5.90
2010,02,22,20,45,5.90
2010,02,22,20,46,5.90
2010,02,22,20,47,5.90
2010,02,22,20,48,5.90
2010,02,22,20,49,6.00
2010,02,22,20,50,6.00
2010,02,22,20,51,6.00
2010,02,22,20,52,6.00
2010,02,22,20,53,6.10
2010,02,22,20,54,6.10
2010,02,22,20,55,6.10
2010,02,22,20,56,6.10
2010,02,22,20,57,6.10
2010,02,22,20,58,6.10
2010,02,22,20,59,6.10
2010,02,22,21,00,6.10
2010,02,22,21,01,6.10
2010,02,22,21,02,6.10
2010,02,22,21,03,6.10
2010,02,22,21,04,6.10
2010,02,22,21,05,6.10
2010,02,22,21,06,6.10
2010,02,22,21,07,6.10
2010,02,22,21,08,6.10
2010,02,22,21,09,6.10
2010,02,22,21,10,6.10
2010,02,22,21,11,6.10
2010,02,22,21,12,6.10
2010,02,22,21,13,6.10
2010,02,22,21,14,6.10
2010,02,22,21,15,6.10
2010,02,22,21,16,6.00
2010,02,22,21,17,6.00
2010,02,22,21,18,5.90
2010,02,22,21,19,5.90
2010,02,22,21,20,5.90
2010,02,22,21,21,5.90
2010,02,22,21,22,5.90
2010,02,22,21,23,5.90
2010,02,22,21,24,5.90
2010,02,22,21,25,5.80
2010,02,22,21,26,5.80
2010,02,22,21,27,5.80
2010,02,22,21,28,5.80
2010,02,22,21,29,5.80
2010,02,22,21,30,5.70
2010,02,22,21,31,5.70
2010,02,22,21,32,5.70
2010,02,22,21,33,5.70
2010,02,22,21,34,5.70
2010,02,22,21,35,5.70
2010,02,22,21,36,5.70
2010,02,22,21,37,5.70
2010,02,22,21,38,5.70
2010,02,22,21,39,5.70
2010,02,22,21,40,5.70
2010,02,22,21,41,5.70
2010,02,22,21,42,5.70
2010,02,22,21,43,5.70
2010,02,22,21,44,5.70
2010,02,22,21,45,5.70
2010,02,22,21,46,5.70
2010,02,22,21,47,5.70
2010,02,22,21,48,5.70
2010,02,22,21,49,5.70
2010,02,22,21,50,5.70
2010,02,22,21,51,5.80
2010,02,22,21,52,5.80
2010,02,22,21,53,5.80
2010,02,22,21,54,5.80
2010,02,22,21,55,5.80
2010,02,22,21,56,5.80
2010,02,22,21,57,5.90
2010,02,22,21,58,5.90
2010,02,22,21,59,5.90
2010,02,22,22,00,5.90
2010,02,22,22,01,5.90
2010,02,22,22,02,5.90
2010,02,22,22,03,5.90
2010,02,22,22,04,5.90
2010,02,22,22,05,5.90
2010,02,22,22,06,5.90
2010,02,22,22,07,5.90
2010,02,22,22,08,5.90
2010,02,22,22,09,5.90
2010,02,22,22,10,5.90
2010,02,22,22,11,5.90
2010,02,22,22,12,5.90
2010,02,22,22,13,5.90
2010,02,22,22,14,5.90
2010,02,22,22,15,5.90
2010,02,22,22,16,5.90
2010,02,22,22,17,5.90
2010,02,22,22,18,5.90
2010,02,22,22,19,5.90
2010,02,22,22,20,5.90
2010,02,22,22,21,5.90
2010,02,22,22,22,5.90
2010,02,22,22,23,5.90
2010,02,22,22,24,5.90
2010,02,22,22,25,5.90
2010,02,22,22,26,5.90
2010,02,22,22,27,5.90
2010,02,22,22,28,5.90
2010,02,22,22,29,5.90
2010,02,22,22,30,5.90
2010,02,22,22,31,5.90
2010,02,22,22,32,5.90
2010,02,22,22,33,5.90
2010,02,22,22,34,5.90
2010,02,22,22,35,5.90
2010,02,22,22,36,5.90
2010,02,22,22,37,5.90
2010,02,22,22,38,5.90
2010,02,22,22,39,5.90
2010,02,22,22,40,5.90
2010,02,22,22,41,5.90
2010,02,22,22,42,5.90
2010,02,22,22,43,5.90
2010,02,22,22,44,5.90
2010,02,22,22,45,5.90
2010,02,22,22,46,5.90
2010,02,22,22,47,5.90
2010,02,22,22,48,5.90
2010,02,22,22,49,5.90
2010,02,22,22,50,5.90
2010,02,22,22,51,5.80
2010,02,22,22,52,5.80
2010,02,22,22,53,5.80
2010,02,22,22,54,5.80
2010,02,22,22,55,5.80
2010,02,22,22,56,5.70
2010,02,22,22,57,5.70
2010,02,22,22,58,5.70
2010,02,22,22,59,5.70
2010,02,22,23,00,5.70
2010,02,22,23,01,5.70
2010,02,22,23,02,5.70
2010,02,22,23,03,5.70
2010,02,22,23,04,5.80
2010,02,22,23,05,5.80
2010,02,22,23,06,5.80
2010,02,22,23,07,5.80
2010,02,22,23,08,5.80
2010,02,22,23,09,5.80
2010,02,22,23,10,5.80
2010,02,22,23,11,5.80
2010,02,22,23,12,5.80
2010,02,22,23,13,5.80
2010,02,22,23,14,5.80
